contact:dominique.lefevre@mio.osupytheas.fr, maurice.libes@osupytheas.fr, didier.mallarino@osupytheas.fr
Project:EMSO http://www.emso-fr.org/EMSO-France
Depth: 2436.0 m
Title:EMSO Ligure Ouest : Data MII capteur MICROCAT
DateTime_Computer,Latitude,Longitude,Temperature,Conductivity,Pressure,DateTime_Instrument
DateTime_Computer,Latitude,Longitude,degC,S m-1,dbar,DateTime_Instrument
2023-10-12T00:01:40Z,42.805,6.029,13.3025,4.60097,2470.707,2023-10-12T02:04:04Z
2023-10-12T00:04:43Z,42.805,6.029,13.3029,4.60098,2470.693,2023-10-12T02:07:07Z
2023-10-12T00:07:46Z,42.805,6.029,13.3027,4.60095,2470.693,2023-10-12T02:10:10Z
2023-10-12T00:10:49Z,42.805,6.029,13.3029,4.60095,2470.693,2023-10-12T02:13:13Z
2023-10-12T00:13:52Z,42.805,6.029,13.3028,4.60097,2470.693,2023-10-12T02:16:17Z
2023-10-12T00:16:55Z,42.805,6.029,13.3024,4.60096,2470.684,2023-10-12T02:19:20Z
2023-10-12T00:19:58Z,42.805,6.029,13.3026,4.60101,2470.73,2023-10-12T02:22:23Z
2023-10-12T00:23:02Z,42.805,6.029,13.3028,4.60099,2470.693,2023-10-12T02:25:26Z
2023-10-12T00:26:05Z,42.805,6.029,13.3029,4.60104,2470.693,2023-10-12T02:28:29Z
2023-10-12T00:29:08Z,42.805,6.029,13.3024,4.60097,2470.67,2023-10-12T02:31:32Z
2023-10-12T00:32:11Z,42.805,6.029,13.3026,4.60097,2470.684,2023-10-12T02:34:35Z
2023-10-12T00:35:14Z,42.805,6.029,13.3029,4.60099,2470.693,2023-10-12T02:37:38Z
2023-10-12T00:38:17Z,42.805,6.029,13.3029,4.60097,2470.693,2023-10-12T02:40:41Z
2023-10-12T00:41:20Z,42.805,6.029,13.3028,4.60099,2470.693,2023-10-12T02:43:44Z
2023-10-12T00:44:23Z,42.805,6.029,13.3024,4.60097,2470.693,2023-10-12T02:46:47Z
2023-10-12T00:47:26Z,42.805,6.029,13.3029,4.60096,2470.73,2023-10-12T02:49:50Z
2023-10-12T00:50:29Z,42.805,6.029,13.3026,4.60098,2470.624,2023-10-12T02:52:54Z
2023-10-12T00:53:32Z,42.805,6.029,13.3029,4.60099,2470.707,2023-10-12T02:55:57Z
2023-10-12T00:56:35Z,42.805,6.029,13.3025,4.60097,2470.717,2023-10-12T02:59:00Z
2023-10-12T00:59:39Z,42.805,6.029,13.3027,4.60106,2470.67,2023-10-12T03:02:03Z
2023-10-12T01:02:42Z,42.805,6.029,13.3029,4.60097,2470.693,2023-10-12T03:05:06Z
2023-10-12T01:05:45Z,42.805,6.029,13.3029,4.60097,2470.717,2023-10-12T03:08:09Z
2023-10-12T01:08:48Z,42.805,6.029,13.3025,4.60094,2470.67,2023-10-12T03:11:12Z
2023-10-12T01:11:51Z,42.805,6.029,13.3026,4.60094,2470.693,2023-10-12T03:14:15Z
2023-10-12T01:14:54Z,42.805,6.029,13.3024,4.60096,2470.67,2023-10-12T03:17:18Z
2023-10-12T01:17:57Z,42.805,6.029,13.3023,4.60094,2470.707,2023-10-12T03:20:21Z
2023-10-12T01:21:00Z,42.805,6.029,13.3026,4.60097,2470.717,2023-10-12T03:23:24Z
2023-10-12T01:24:03Z,42.805,6.029,13.3024,4.60096,2470.717,2023-10-12T03:26:27Z
2023-10-12T01:27:06Z,42.805,6.029,13.3026,4.60095,2470.693,2023-10-12T03:29:31Z
2023-10-12T01:30:09Z,42.805,6.029,13.3025,4.60094,2470.684,2023-10-12T03:32:34Z
2023-10-12T01:33:12Z,42.805,6.029,13.3025,4.60096,2470.67,2023-10-12T03:35:37Z
2023-10-12T01:36:16Z,42.805,6.029,13.3025,4.60094,2470.707,2023-10-12T03:38:40Z
2023-10-12T01:39:19Z,42.805,6.029,13.3024,4.60093,2470.717,2023-10-12T03:41:43Z
2023-10-12T01:42:22Z,42.805,6.029,13.3026,4.60099,2470.693,2023-10-12T03:44:46Z
2023-10-12T01:45:25Z,42.805,6.029,13.3024,4.60096,2470.693,2023-10-12T03:47:49Z
2023-10-12T01:48:28Z,42.805,6.029,13.3024,4.60099,2470.703,2023-10-12T03:50:52Z
2023-10-12T01:51:31Z,42.805,6.029,13.3026,4.60097,2470.717,2023-10-12T03:53:55Z
2023-10-12T01:54:34Z,42.805,6.029,13.3030,4.60099,2470.693,2023-10-12T03:56:58Z
2023-10-12T01:57:37Z,42.805,6.029,13.3026,4.60097,2470.717,2023-10-12T04:00:01Z
2023-10-12T02:00:40Z,42.805,6.029,13.3026,4.60095,2470.693,2023-10-12T04:03:04Z
2023-10-12T02:03:43Z,42.805,6.029,13.3029,4.60099,2470.717,2023-10-12T04:06:08Z
2023-10-12T02:06:46Z,42.805,6.029,13.3026,4.60098,2470.74,2023-10-12T04:09:11Z
2023-10-12T02:09:49Z,42.805,6.029,13.3024,4.60097,2470.74,2023-10-12T04:12:14Z
2023-10-12T02:12:53Z,42.805,6.029,13.3026,4.60099,2470.74,2023-10-12T04:15:17Z
2023-10-12T02:15:56Z,42.805,6.029,13.3027,4.60096,2470.693,2023-10-12T04:18:20Z
2023-10-12T02:18:59Z,42.805,6.029,13.3018,4.60096,2470.693,2023-10-12T04:21:23Z
2023-10-12T02:22:02Z,42.805,6.029,13.3029,4.60097,2470.693,2023-10-12T04:24:26Z
2023-10-12T02:25:05Z,42.805,6.029,13.3027,4.60099,2470.717,2023-10-12T04:27:29Z
2023-10-12T02:28:08Z,42.805,6.029,13.3026,4.60094,2470.693,2023-10-12T04:30:32Z
2023-10-12T02:31:11Z,42.805,6.029,13.3026,4.60101,2470.74,2023-10-12T04:33:35Z
2023-10-12T02:34:14Z,42.805,6.029,13.3026,4.60099,2470.707,2023-10-12T04:36:38Z
2023-10-12T02:37:17Z,42.805,6.029,13.3027,4.60097,2470.73,2023-10-12T04:39:41Z
2023-10-12T02:40:20Z,42.805,6.029,13.3024,4.60096,2470.74,2023-10-12T04:42:45Z
2023-10-12T02:43:23Z,42.805,6.029,13.3030,4.60093,2470.693,2023-10-12T04:45:48Z
2023-10-12T02:46:26Z,42.805,6.029,13.3028,4.60096,2470.73,2023-10-12T04:48:51Z
2023-10-12T02:49:30Z,42.805,6.029,13.3022,4.60097,2470.754,2023-10-12T04:51:54Z
2023-10-12T02:52:33Z,42.805,6.029,13.3026,4.60096,2470.74,2023-10-12T04:54:57Z
2023-10-12T02:55:36Z,42.805,6.029,13.3025,4.60097,2470.74,2023-10-12T04:58:00Z
2023-10-12T02:58:39Z,42.805,6.029,13.3024,4.60095,2470.73,2023-10-12T05:01:03Z
2023-10-12T03:01:42Z,42.805,6.029,13.3026,4.60096,2470.74,2023-10-12T05:04:06Z
2023-10-12T03:04:45Z,42.805,6.029,13.3026,4.60096,2470.763,2023-10-12T05:07:09Z
2023-10-12T03:07:48Z,42.805,6.029,13.3027,4.60097,2470.754,2023-10-12T05:10:12Z
2023-10-12T03:10:51Z,42.805,6.029,13.3027,4.60099,2470.763,2023-10-12T05:13:15Z
2023-10-12T03:13:54Z,42.805,6.029,13.3026,4.60098,2470.763,2023-10-12T05:16:18Z
2023-10-12T03:16:57Z,42.805,6.029,13.3024,4.60097,2470.763,2023-10-12T05:19:21Z
2023-10-12T03:20:00Z,42.805,6.029,13.3026,4.60096,2470.74,2023-10-12T05:22:25Z
2023-10-12T03:23:03Z,42.805,6.029,13.3026,4.60097,2470.74,2023-10-12T05:25:28Z
2023-10-12T03:26:06Z,42.805,6.029,13.3024,4.60099,2470.787,2023-10-12T05:28:31Z
2023-10-12T03:29:10Z,42.805,6.029,13.3023,4.60102,2470.787,2023-10-12T05:31:34Z
2023-10-12T03:32:13Z,42.805,6.029,13.3029,4.60101,2470.717,2023-10-12T05:34:37Z
2023-10-12T03:35:16Z,42.805,6.029,13.3027,4.60098,2470.777,2023-10-12T05:37:40Z
2023-10-12T03:38:19Z,42.805,6.029,13.3029,4.60097,2470.8,2023-10-12T05:40:43Z
2023-10-12T03:41:22Z,42.805,6.029,13.3027,4.60098,2470.787,2023-10-12T05:43:46Z
2023-10-12T03:44:25Z,42.805,6.029,13.3027,4.60095,2470.74,2023-10-12T05:46:49Z
2023-10-12T03:47:28Z,42.805,6.029,13.3028,4.60099,2470.74,2023-10-12T05:49:52Z
2023-10-12T03:50:31Z,42.805,6.029,13.3030,4.60095,2470.787,2023-10-12T05:52:55Z
2023-10-12T03:53:34Z,42.805,6.029,13.3028,4.60096,2470.787,2023-10-12T05:55:58Z
2023-10-12T03:56:37Z,42.805,6.029,13.3024,4.60100,2470.8,2023-10-12T05:59:02Z
2023-10-12T03:59:40Z,42.805,6.029,13.3029,4.60102,2470.763,2023-10-12T06:02:05Z
2023-10-12T04:02:43Z,42.805,6.029,13.3025,4.60096,2470.787,2023-10-12T06:05:08Z
2023-10-12T04:05:47Z,42.805,6.029,13.3029,4.60097,2470.787,2023-10-12T06:08:11Z
2023-10-12T04:08:50Z,42.805,6.029,13.3024,4.60097,2470.81,2023-10-12T06:11:14Z
2023-10-12T04:11:53Z,42.805,6.029,13.3024,4.60101,2470.777,2023-10-12T06:14:17Z
2023-10-12T04:14:56Z,42.805,6.029,13.3024,4.60099,2470.8,2023-10-12T06:17:20Z
2023-10-12T04:17:59Z,42.805,6.029,13.3026,4.60103,2470.763,2023-10-12T06:20:23Z
2023-10-12T04:21:02Z,42.805,6.029,13.3028,4.60100,2470.763,2023-10-12T06:23:26Z
2023-10-12T04:24:05Z,42.805,6.029,13.3027,4.60099,2470.824,2023-10-12T06:26:29Z
2023-10-12T04:27:08Z,42.805,6.029,13.3029,4.60101,2470.847,2023-10-12T06:29:32Z
2023-10-12T04:30:11Z,42.805,6.029,13.3026,4.60105,2470.787,2023-10-12T06:32:35Z
2023-10-12T04:33:14Z,42.805,6.029,13.3031,4.60116,2470.787,2023-10-12T06:35:39Z
2023-10-12T04:36:17Z,42.805,6.029,13.3026,4.60106,2470.74,2023-10-12T06:38:42Z
2023-10-12T04:39:20Z,42.805,6.029,13.3029,4.60108,2470.824,2023-10-12T06:41:45Z
2023-10-12T04:42:24Z,42.805,6.029,13.3026,4.60102,2470.81,2023-10-12T06:44:48Z
2023-10-12T04:45:27Z,42.805,6.029,13.3026,4.60110,2470.824,2023-10-12T06:47:51Z
2023-10-12T04:48:30Z,42.805,6.029,13.3029,4.60112,2470.763,2023-10-12T06:50:54Z
2023-10-12T04:51:33Z,42.805,6.029,13.3028,4.60099,2470.787,2023-10-12T06:53:57Z
2023-10-12T04:54:36Z,42.805,6.029,13.3024,4.60109,2470.787,2023-10-12T06:57:00Z
2023-10-12T04:57:39Z,42.805,6.029,13.3026,4.60110,2470.824,2023-10-12T07:00:03Z
2023-10-12T05:00:42Z,42.805,6.029,13.3029,4.60104,2470.796,2023-10-12T07:03:06Z
2023-10-12T05:03:45Z,42.805,6.029,13.3026,4.60104,2470.833,2023-10-12T07:06:09Z
2023-10-12T05:06:48Z,42.805,6.029,13.3029,4.60114,2470.847,2023-10-12T07:09:12Z
2023-10-12T05:09:51Z,42.805,6.029,13.3031,4.60103,2470.81,2023-10-12T07:12:16Z
2023-10-12T05:12:54Z,42.805,6.029,13.3031,4.60107,2470.81,2023-10-12T07:15:19Z
2023-10-12T05:15:57Z,42.805,6.029,13.3028,4.60122,2470.8,2023-10-12T07:18:22Z
2023-10-12T05:19:01Z,42.805,6.029,13.3027,4.60116,2470.81,2023-10-12T07:21:25Z
2023-10-12T05:22:04Z,42.805,6.029,13.3032,4.60106,2470.81,2023-10-12T07:24:28Z
2023-10-12T05:25:07Z,42.805,6.029,13.3031,4.60124,2470.847,2023-10-12T07:27:31Z
2023-10-12T05:28:10Z,42.805,6.029,13.3026,4.60104,2470.847,2023-10-12T07:30:34Z
2023-10-12T05:31:13Z,42.805,6.029,13.3030,4.60108,2470.833,2023-10-12T07:33:37Z
2023-10-12T05:34:16Z,42.805,6.029,13.3028,4.60113,2470.833,2023-10-12T07:36:40Z
2023-10-12T05:37:19Z,42.805,6.029,13.3031,4.60122,2470.81,2023-10-12T07:39:43Z
2023-10-12T05:40:22Z,42.805,6.029,13.3028,4.60125,2470.787,2023-10-12T07:42:46Z
2023-10-12T05:43:25Z,42.805,6.029,13.3027,4.60110,2470.81,2023-10-12T07:45:49Z
2023-10-12T05:46:28Z,42.805,6.029,13.3029,4.60116,2470.871,2023-10-12T07:48:53Z
2023-10-12T05:49:31Z,42.805,6.029,13.3028,4.60115,2470.81,2023-10-12T07:51:56Z
2023-10-12T05:52:34Z,42.805,6.029,13.3030,4.60132,2470.81,2023-10-12T07:54:59Z
2023-10-12T05:55:38Z,42.805,6.029,13.3029,4.60175,2470.763,2023-10-12T07:58:02Z
2023-10-12T05:58:41Z,42.805,6.029,13.3028,4.60137,2470.833,2023-10-12T08:01:05Z
2023-10-12T06:01:44Z,42.805,6.029,13.3026,4.60125,2470.847,2023-10-12T08:04:08Z
2023-10-12T06:04:47Z,42.805,6.029,13.3026,4.60131,2470.787,2023-10-12T08:07:11Z
2023-10-12T06:07:50Z,42.805,6.029,13.3032,4.60121,2470.824,2023-10-12T08:10:14Z
2023-10-12T06:10:53Z,42.805,6.029,13.3027,4.60140,2470.833,2023-10-12T08:13:17Z
2023-10-12T06:13:56Z,42.805,6.029,13.3036,4.60119,2470.833,2023-10-12T08:16:20Z
2023-10-12T06:16:59Z,42.805,6.029,13.3030,4.60122,2470.787,2023-10-12T08:19:23Z
2023-10-12T06:20:02Z,42.805,6.029,13.3026,4.60136,2470.833,2023-10-12T08:22:26Z
2023-10-12T06:23:05Z,42.805,6.029,13.3030,4.60122,2470.824,2023-10-12T08:25:30Z
2023-10-12T06:26:08Z,42.805,6.029,13.3027,4.60119,2470.857,2023-10-12T08:28:33Z
2023-10-12T06:29:11Z,42.805,6.029,13.3028,4.60114,2470.847,2023-10-12T08:31:36Z
2023-10-12T06:32:15Z,42.805,6.029,13.3024,4.60117,2470.824,2023-10-12T08:34:39Z
2023-10-12T06:35:18Z,42.805,6.029,13.3026,4.60117,2470.81,2023-10-12T08:37:42Z
2023-10-12T06:38:21Z,42.805,6.029,13.3026,4.60118,2470.833,2023-10-12T08:40:46Z
2023-10-12T06:41:24Z,42.805,6.029,13.3031,4.60122,2470.81,2023-10-12T08:43:49Z
2023-10-12T06:44:27Z,42.805,6.029,13.3029,4.60125,2470.81,2023-10-12T08:46:52Z
2023-10-12T06:47:31Z,42.805,6.029,13.3026,4.60123,2470.857,2023-10-12T08:49:55Z
2023-10-12T06:50:34Z,42.805,6.029,13.3029,4.60168,2470.847,2023-10-12T08:52:58Z
2023-10-12T06:53:37Z,42.805,6.029,13.3032,4.60137,2470.847,2023-10-12T08:56:01Z
2023-10-12T06:56:40Z,42.805,6.029,13.3029,4.60162,2470.833,2023-10-12T08:59:04Z
2023-10-12T06:59:43Z,42.805,6.029,13.3035,4.60134,2470.824,2023-10-12T09:02:07Z
2023-10-12T07:02:46Z,42.805,6.029,13.3030,4.60131,2470.833,2023-10-12T09:05:10Z
2023-10-12T07:05:49Z,42.805,6.029,13.3031,4.60155,2470.81,2023-10-12T09:08:13Z
2023-10-12T07:08:52Z,42.805,6.029,13.3031,4.60166,2470.824,2023-10-12T09:11:16Z
2023-10-12T07:11:55Z,42.805,6.029,13.3061,4.60150,2470.796,2023-10-12T09:14:19Z
2023-10-12T07:14:58Z,42.805,6.029,13.3073,4.60142,2470.833,2023-10-12T09:17:23Z
2023-10-12T07:18:01Z,42.805,6.029,13.3073,4.60173,2470.833,2023-10-12T09:20:26Z
2023-10-12T07:21:04Z,42.805,6.029,13.3082,4.60136,2470.824,2023-10-12T09:23:29Z
2023-10-12T07:24:08Z,42.805,6.029,13.3070,4.60157,2470.824,2023-10-12T09:26:32Z
2023-10-12T07:27:11Z,42.805,6.029,13.3103,4.60154,2470.824,2023-10-12T09:29:35Z
2023-10-12T07:30:14Z,42.805,6.029,13.3074,4.60147,2470.847,2023-10-12T09:32:38Z
2023-10-12T07:33:17Z,42.805,6.029,13.3054,4.60149,2470.824,2023-10-12T09:35:41Z
2023-10-12T07:36:20Z,42.805,6.029,13.3087,4.60140,2470.824,2023-10-12T09:38:44Z
2023-10-12T07:39:23Z,42.805,6.029,13.3116,4.60130,2470.81,2023-10-12T09:41:47Z
2023-10-12T07:42:26Z,42.805,6.029,13.3088,4.60139,2470.8,2023-10-12T09:44:50Z
2023-10-12T07:45:29Z,42.805,6.029,13.3084,4.60141,2470.81,2023-10-12T09:47:53Z
2023-10-12T07:48:32Z,42.805,6.029,13.3101,4.60157,2470.8,2023-10-12T09:50:56Z
2023-10-12T07:51:35Z,42.805,6.029,13.3098,4.60127,2470.787,2023-10-12T09:54:00Z
2023-10-12T07:54:38Z,42.805,6.029,13.3089,4.60150,2470.81,2023-10-12T09:57:03Z
2023-10-12T07:57:41Z,42.805,6.029,13.3056,4.60172,2470.8,2023-10-12T10:00:06Z
2023-10-12T08:00:45Z,42.805,6.029,13.3111,4.60164,2470.824,2023-10-12T10:03:09Z
2023-10-12T08:03:48Z,42.805,6.029,13.3067,4.60193,2470.763,2023-10-12T10:06:12Z
2023-10-12T08:06:51Z,42.805,6.029,13.3084,4.60159,2470.787,2023-10-12T10:09:15Z
2023-10-12T08:09:54Z,42.805,6.029,13.3079,4.60137,2470.8,2023-10-12T10:12:18Z
2023-10-12T08:12:57Z,42.805,6.029,13.3092,4.60144,2470.824,2023-10-12T10:15:21Z
2023-10-12T08:16:00Z,42.805,6.029,13.3083,4.60135,2470.787,2023-10-12T10:18:24Z
2023-10-12T08:19:03Z,42.805,6.029,13.3078,4.60130,2470.824,2023-10-12T10:21:27Z
2023-10-12T08:22:06Z,42.805,6.029,13.3066,4.60138,2470.8,2023-10-12T10:24:30Z
2023-10-12T08:25:09Z,42.805,6.029,13.3084,4.60146,2470.8,2023-10-12T10:27:34Z
2023-10-12T08:28:12Z,42.805,6.029,13.3097,4.60143,2470.787,2023-10-12T10:30:37Z
2023-10-12T08:31:14Z,42.805,6.029,13.3097,4.60139,2470.8,2023-10-12T10:33:39Z
2023-10-12T08:34:17Z,42.805,6.029,13.3094,4.60125,2470.787,2023-10-12T10:36:42Z
2023-10-12T08:37:20Z,42.805,6.029,13.3096,4.60126,2470.824,2023-10-12T10:39:45Z
2023-10-12T08:40:24Z,42.805,6.029,13.3099,4.60137,2470.763,2023-10-12T10:42:48Z
2023-10-12T08:43:27Z,42.805,6.029,13.3115,4.60134,2470.763,2023-10-12T10:45:51Z
2023-10-12T08:46:30Z,42.805,6.029,13.3093,4.60135,2470.777,2023-10-12T10:48:54Z
2023-10-12T08:49:33Z,42.805,6.029,13.3101,4.60146,2470.777,2023-10-12T10:51:57Z
2023-10-12T08:52:36Z,42.805,6.029,13.3076,4.60135,2470.777,2023-10-12T10:55:00Z
2023-10-12T08:55:39Z,42.805,6.029,13.3072,4.60132,2470.763,2023-10-12T10:58:03Z
2023-10-12T08:58:42Z,42.805,6.029,13.3092,4.60131,2470.777,2023-10-12T11:01:06Z
2023-10-12T09:01:45Z,42.805,6.029,13.3084,4.60137,2470.787,2023-10-12T11:04:09Z
2023-10-12T09:04:48Z,42.805,6.029,13.3080,4.60140,2470.777,2023-10-12T11:07:12Z
2023-10-12T09:07:51Z,42.805,6.029,13.3086,4.60126,2470.787,2023-10-12T11:10:16Z
2023-10-12T09:10:54Z,42.805,6.029,13.3106,4.60144,2470.8,2023-10-12T11:13:19Z
2023-10-12T09:13:57Z,42.805,6.029,13.3084,4.60141,2470.754,2023-10-12T11:16:22Z
2023-10-12T09:17:01Z,42.805,6.029,13.3069,4.60137,2470.777,2023-10-12T11:19:25Z
2023-10-12T09:20:04Z,42.805,6.029,13.3078,4.60134,2470.777,2023-10-12T11:22:28Z
2023-10-12T09:23:07Z,42.805,6.029,13.3084,4.60132,2470.777,2023-10-12T11:25:31Z
2023-10-12T09:26:10Z,42.805,6.029,13.3073,4.60128,2470.763,2023-10-12T11:28:34Z
2023-10-12T09:29:13Z,42.805,6.029,13.3076,4.60129,2470.74,2023-10-12T11:31:37Z
2023-10-12T09:32:16Z,42.805,6.029,13.3073,4.60137,2470.754,2023-10-12T11:34:40Z
2023-10-12T09:35:19Z,42.805,6.029,13.3074,4.60153,2470.777,2023-10-12T11:37:43Z
2023-10-12T09:38:22Z,42.805,6.029,13.3083,4.60140,2470.754,2023-10-12T11:40:46Z
2023-10-12T09:41:25Z,42.805,6.029,13.3081,4.60143,2470.754,2023-10-12T11:43:50Z
2023-10-12T09:44:28Z,42.805,6.029,13.3076,4.60139,2470.777,2023-10-12T11:46:53Z
2023-10-12T09:47:31Z,42.805,6.029,13.3089,4.60130,2470.73,2023-10-12T11:49:56Z
2023-10-12T09:50:35Z,42.805,6.029,13.3078,4.60141,2470.777,2023-10-12T11:52:59Z
2023-10-12T09:53:38Z,42.805,6.029,13.3083,4.60127,2470.763,2023-10-12T11:56:02Z
2023-10-12T09:56:41Z,42.805,6.029,13.3070,4.60150,2470.74,2023-10-12T11:59:05Z
2023-10-12T09:59:44Z,42.805,6.029,13.3079,4.60140,2470.74,2023-10-12T12:02:08Z
2023-10-12T10:02:47Z,42.805,6.029,13.3078,4.60131,2470.754,2023-10-12T12:05:11Z
2023-10-12T10:05:50Z,42.805,6.029,13.3076,4.60128,2470.73,2023-10-12T12:08:14Z
2023-10-12T10:08:53Z,42.805,6.029,13.3090,4.60137,2470.754,2023-10-12T12:11:17Z
2023-10-12T10:11:56Z,42.805,6.029,13.3078,4.60123,2470.73,2023-10-12T12:14:20Z
2023-10-12T10:14:59Z,42.805,6.029,13.3069,4.60134,2470.73,2023-10-12T12:17:23Z
2023-10-12T10:18:02Z,42.805,6.029,13.3082,4.60140,2470.73,2023-10-12T12:20:27Z
2023-10-12T10:21:05Z,42.805,6.029,13.3071,4.60137,2470.754,2023-10-12T12:23:30Z
2023-10-12T10:24:09Z,42.805,6.029,13.3085,4.60140,2470.754,2023-10-12T12:26:33Z
2023-10-12T10:27:12Z,42.805,6.029,13.3074,4.60130,2470.717,2023-10-12T12:29:36Z
2023-10-12T10:30:13Z,42.805,6.029,13.3074,4.60132,2470.754,2023-10-12T12:32:38Z
2023-10-12T10:33:17Z,42.805,6.029,13.3076,4.60129,2470.717,2023-10-12T12:35:41Z
2023-10-12T10:36:20Z,42.805,6.029,13.3072,4.60127,2470.754,2023-10-12T12:38:44Z
2023-10-12T10:39:23Z,42.805,6.029,13.3064,4.60129,2470.707,2023-10-12T12:41:47Z
2023-10-12T10:42:26Z,42.805,6.029,13.3073,4.60129,2470.717,2023-10-12T12:44:50Z
2023-10-12T10:45:29Z,42.805,6.029,13.3071,4.60135,2470.73,2023-10-12T12:47:53Z
2023-10-12T10:48:32Z,42.805,6.029,13.3074,4.60126,2470.67,2023-10-12T12:50:56Z
2023-10-12T10:51:35Z,42.805,6.029,13.3069,4.60127,2470.73,2023-10-12T12:53:59Z
2023-10-12T10:54:38Z,42.805,6.029,13.3070,4.60128,2470.717,2023-10-12T12:57:02Z
2023-10-12T10:57:41Z,42.805,6.029,13.3069,4.60129,2470.707,2023-10-12T13:00:05Z
2023-10-12T11:00:44Z,42.805,6.029,13.3073,4.60130,2470.73,2023-10-12T13:03:09Z
2023-10-12T11:03:47Z,42.805,6.029,13.3072,4.60141,2470.707,2023-10-12T13:06:12Z
2023-10-12T11:06:50Z,42.805,6.029,13.3068,4.60120,2470.693,2023-10-12T13:09:15Z
2023-10-12T11:09:54Z,42.805,6.029,13.3063,4.60122,2470.73,2023-10-12T13:12:18Z
2023-10-12T11:12:57Z,42.805,6.029,13.3059,4.60122,2470.707,2023-10-12T13:15:21Z
2023-10-12T11:16:00Z,42.805,6.029,13.3059,4.60121,2470.684,2023-10-12T13:18:24Z
2023-10-12T11:19:03Z,42.805,6.029,13.3095,4.60129,2470.717,2023-10-12T13:21:27Z
2023-10-12T11:22:06Z,42.805,6.029,13.3067,4.60114,2470.693,2023-10-12T13:24:30Z
2023-10-12T11:25:09Z,42.805,6.029,13.3063,4.60135,2470.693,2023-10-12T13:27:33Z
2023-10-12T11:28:12Z,42.805,6.029,13.3068,4.60122,2470.754,2023-10-12T13:30:36Z
2023-10-12T11:31:15Z,42.805,6.029,13.3060,4.60121,2470.717,2023-10-12T13:33:39Z
2023-10-12T11:34:18Z,42.805,6.029,13.3062,4.60120,2470.717,2023-10-12T13:36:42Z
2023-10-12T11:37:21Z,42.805,6.029,13.3070,4.60127,2470.73,2023-10-12T13:39:46Z
2023-10-12T11:40:24Z,42.805,6.029,13.3063,4.60132,2470.684,2023-10-12T13:42:49Z
2023-10-12T11:43:27Z,42.805,6.029,13.3057,4.60120,2470.717,2023-10-12T13:45:52Z
2023-10-12T11:46:31Z,42.805,6.029,13.3055,4.60119,2470.693,2023-10-12T13:48:55Z
2023-10-12T11:49:34Z,42.805,6.029,13.3067,4.60139,2470.693,2023-10-12T13:51:58Z
2023-10-12T11:52:37Z,42.805,6.029,13.3076,4.60127,2470.73,2023-10-12T13:55:01Z
2023-10-12T11:55:40Z,42.805,6.029,13.3072,4.60133,2470.67,2023-10-12T13:58:04Z
2023-10-12T11:58:43Z,42.805,6.029,13.3055,4.60135,2470.67,2023-10-12T14:01:07Z
2023-10-12T12:01:46Z,42.805,6.029,13.3061,4.60132,2470.707,2023-10-12T14:04:10Z
2023-10-12T12:04:49Z,42.805,6.029,13.3085,4.60121,2470.693,2023-10-12T14:07:13Z
2023-10-12T12:07:52Z,42.805,6.029,13.3066,4.60130,2470.693,2023-10-12T14:10:16Z
2023-10-12T12:10:55Z,42.805,6.029,13.3073,4.60129,2470.693,2023-10-12T14:13:20Z
2023-10-12T12:13:58Z,42.805,6.029,13.3073,4.60137,2470.693,2023-10-12T14:16:23Z
2023-10-12T12:17:01Z,42.805,6.029,13.3084,4.60132,2470.717,2023-10-12T14:19:26Z
2023-10-12T12:20:05Z,42.805,6.029,13.3086,4.60127,2470.684,2023-10-12T14:22:29Z
2023-10-12T12:23:08Z,42.805,6.029,13.3068,4.60127,2470.684,2023-10-12T14:25:32Z
2023-10-12T12:26:11Z,42.805,6.029,13.3062,4.60122,2470.707,2023-10-12T14:28:35Z
2023-10-12T12:29:14Z,42.805,6.029,13.3084,4.60122,2470.693,2023-10-12T14:31:38Z
2023-10-12T12:32:17Z,42.805,6.029,13.3067,4.60127,2470.73,2023-10-12T14:34:41Z
2023-10-12T12:35:20Z,42.805,6.029,13.3070,4.60135,2470.67,2023-10-12T14:37:44Z
2023-10-12T12:38:23Z,42.805,6.029,13.3085,4.60122,2470.693,2023-10-12T14:40:47Z
2023-10-12T12:41:26Z,42.805,6.029,13.3076,4.60137,2470.693,2023-10-12T14:43:50Z
2023-10-12T12:44:29Z,42.805,6.029,13.3066,4.60142,2470.73,2023-10-12T14:46:54Z
2023-10-12T12:47:32Z,42.805,6.029,13.3067,4.60128,2470.693,2023-10-12T14:49:57Z
2023-10-12T12:50:35Z,42.805,6.029,13.3066,4.60121,2470.707,2023-10-12T14:53:00Z
2023-10-12T12:53:38Z,42.805,6.029,13.3067,4.60140,2470.67,2023-10-12T14:56:03Z
2023-10-12T12:56:42Z,42.805,6.029,13.3034,4.60123,2470.717,2023-10-12T14:59:06Z
2023-10-12T12:59:45Z,42.805,6.029,13.3046,4.60132,2470.67,2023-10-12T15:02:09Z
2023-10-12T13:02:48Z,42.805,6.029,13.3036,4.60155,2470.707,2023-10-12T15:05:12Z
2023-10-12T13:05:51Z,42.805,6.029,13.3031,4.60137,2470.67,2023-10-12T15:08:15Z
2023-10-12T13:08:54Z,42.805,6.029,13.3029,4.60122,2470.693,2023-10-12T15:11:18Z
2023-10-12T13:11:57Z,42.805,6.029,13.3026,4.60121,2470.707,2023-10-12T15:14:21Z
2023-10-12T13:15:00Z,42.805,6.029,13.3031,4.60114,2470.693,2023-10-12T15:17:24Z
2023-10-12T13:18:03Z,42.805,6.029,13.3029,4.60107,2470.693,2023-10-12T15:20:27Z
2023-10-12T13:21:06Z,42.805,6.029,13.3032,4.60108,2470.707,2023-10-12T15:23:31Z
2023-10-12T13:24:09Z,42.805,6.029,13.3027,4.60110,2470.73,2023-10-12T15:26:34Z
2023-10-12T13:27:12Z,42.805,6.029,13.3031,4.60112,2470.693,2023-10-12T15:29:37Z
2023-10-12T13:30:16Z,42.805,6.029,13.3026,4.60106,2470.717,2023-10-12T15:32:40Z
2023-10-12T13:33:19Z,42.805,6.029,13.3029,4.60104,2470.717,2023-10-12T15:35:43Z
2023-10-12T13:36:22Z,42.805,6.029,13.3034,4.60114,2470.693,2023-10-12T15:38:46Z
2023-10-12T13:39:25Z,42.805,6.029,13.3029,4.60117,2470.717,2023-10-12T15:41:49Z
2023-10-12T13:42:28Z,42.805,6.029,13.3027,4.60111,2470.717,2023-10-12T15:44:52Z
2023-10-12T13:45:31Z,42.805,6.029,13.3029,4.60106,2470.67,2023-10-12T15:47:55Z
2023-10-12T13:48:34Z,42.805,6.029,13.3030,4.60104,2470.73,2023-10-12T15:50:58Z
2023-10-12T13:51:37Z,42.805,6.029,13.3027,4.60102,2470.717,2023-10-12T15:54:01Z
2023-10-12T13:54:40Z,42.805,6.029,13.3029,4.60101,2470.703,2023-10-12T15:57:05Z
2023-10-12T13:57:43Z,42.805,6.029,13.3029,4.60102,2470.754,2023-10-12T16:00:08Z
2023-10-12T14:00:46Z,42.805,6.029,13.3029,4.60099,2470.717,2023-10-12T16:03:11Z
2023-10-12T14:03:49Z,42.805,6.029,13.3031,4.60099,2470.726,2023-10-12T16:06:14Z
2023-10-12T14:06:53Z,42.805,6.029,13.3027,4.60104,2470.693,2023-10-12T16:09:17Z
2023-10-12T14:09:56Z,42.805,6.029,13.3028,4.60104,2470.754,2023-10-12T16:12:20Z
2023-10-12T14:12:59Z,42.805,6.029,13.3026,4.60103,2470.693,2023-10-12T16:15:23Z
2023-10-12T14:16:02Z,42.805,6.029,13.3028,4.60106,2470.717,2023-10-12T16:18:26Z
2023-10-12T14:19:05Z,42.805,6.029,13.3025,4.60107,2470.717,2023-10-12T16:21:29Z
2023-10-12T14:22:08Z,42.805,6.029,13.3027,4.60102,2470.73,2023-10-12T16:24:32Z
2023-10-12T14:25:11Z,42.805,6.029,13.3025,4.60102,2470.73,2023-10-12T16:27:35Z
2023-10-12T14:28:14Z,42.805,6.029,13.3033,4.60105,2470.763,2023-10-12T16:30:38Z
2023-10-12T14:31:17Z,42.805,6.029,13.3030,4.60103,2470.754,2023-10-12T16:33:42Z
2023-10-12T14:34:20Z,42.805,6.029,13.3029,4.60104,2470.717,2023-10-12T16:36:45Z
2023-10-12T14:37:23Z,42.805,6.029,13.3031,4.60109,2470.763,2023-10-12T16:39:48Z
2023-10-12T14:40:27Z,42.805,6.029,13.3024,4.60104,2470.74,2023-10-12T16:42:51Z
2023-10-12T14:43:30Z,42.805,6.029,13.3024,4.60102,2470.74,2023-10-12T16:45:54Z
2023-10-12T14:46:33Z,42.805,6.029,13.3030,4.60106,2470.787,2023-10-12T16:48:57Z
2023-10-12T14:49:36Z,42.805,6.029,13.3033,4.60104,2470.763,2023-10-12T16:52:00Z
2023-10-12T14:52:39Z,42.805,6.029,13.3031,4.60108,2470.726,2023-10-12T16:55:03Z
2023-10-12T14:55:42Z,42.805,6.029,13.3024,4.60104,2470.787,2023-10-12T16:58:06Z
2023-10-12T14:58:45Z,42.805,6.029,13.3026,4.60114,2470.763,2023-10-12T17:01:09Z
2023-10-12T15:01:48Z,42.805,6.029,13.3028,4.60112,2470.777,2023-10-12T17:04:12Z